Location: Boissi�res
(45.2500°N, 2.3667°E)
Time: 18:22:16
(UTC+00:00)

Cosmos 1727 Rocket - Pass Details

Date: 03 March 2021
Orbit: 961 x 996 km, 82.9° (Epoch: 19 April)

Event Time Altitude Azimuth Distance (km) Brightness Sun altitude
Rises 20:27:44 0° 348° (NNW) 3,658 7.5 -29.7°
Reaches altitude 10° 20:30:15 10° 345° (NNW) 2,708 6.7 -30.1°
Maximum altitude 20:36:20 61° 267° (W) 1,090 4.3 -31.0°
Enters shadow 20:37:42 49° 219° (SW) 1,225 4.5 -31.3°
